Location: Hilton Head Island
(32.2163°N, 80.7526°W)
Time: 14:21:41
(UTC-04:00)

Vanguard 1 - Pass Details

Date: 23 February 2026
Orbit: 653 x 3818 km, 34.2° (Epoch: 9 March)

Event Time Altitude Azimuth Distance (km) Brightness Sun altitude
Rises 11:37:39 0° 198° (SSW) 3,187 13.2 45.9°
Reaches altitude 10° 11:40:24 10° 179° (S) 2,484 13.1 46.1°
Maximum altitude 11:44:30 20° 133° (SE) 2,273 13.0 46.3°
Drops below altitude 10° 11:50:06 10° 91° (E) 3,553 13.2 46.7°
Sets 11:55:07 0° 77° (ENE) 5,152 13.8 47.0°
